MPH81 HUEN-HKJK

Flight info

Callsign MPH81
Flight time 0h 44m
Altitude 35000
Route PASAN2B PASAN UL433 NAKAT NAKAT3C
Aircraft MD11/H-SDE1E2E3FGHIJ2J3J4J5M1RWXY/LB1D1

Departure

Time 2026-04-26 13:39
Airport Entebbe International Airport (HUEN)

Arrival

Time 2026-04-26 14:23
Airport Jomo Kenyatta International Airport (HKJK)
Time Latitude Longitude Altitude Speed Heading
2026-04-26 13:11 0.03046 32.44353 3791 ft 0 kts 82°
2026-04-26 13:27 0.03043 32.44329 3790 ft 4 kts 82°
2026-04-26 13:27 0.03039 32.44303 3786 ft 4 kts 82°
2026-04-26 13:27 0.03036 32.44281 3788 ft 4 kts 71°
2026-04-26 13:28 0.03026 32.44263 3791 ft 4 kts 29°
2026-04-26 13:28 0.03003 32.44255 3787 ft 4 kts
2026-04-26 13:28 0.02986 32.44255 3787 ft 1 kts 352°
2026-04-26 13:28 0.03005 32.44252 3787 ft 1 kts 352°
2026-04-26 13:33 0.03016 32.44250 3787 ft 6 kts 351°
2026-04-26 13:33 0.03062 32.44227 3793 ft 7 kts 314°
2026-04-26 13:33 0.03076 32.44187 3791 ft 6 kts 277°
2026-04-26 13:34 0.03096 32.44154 3790 ft 8 kts 314°
2026-04-26 13:34 0.03153 32.44130 3791 ft 10 kts 345°
2026-04-26 13:34 0.03227 32.44118 3794 ft 11 kts 351°
2026-04-26 13:34 0.03253 32.44114 3791 ft 11 kts 351°
2026-04-26 13:35 0.03448 32.44086 3788 ft 24 kts 352°
2026-04-26 13:35 0.03616 32.44064 3788 ft 24 kts 352°
2026-04-26 13:35 0.03774 32.44042 3790 ft 22 kts 352°
2026-04-26 13:35 0.03925 32.44023 3794 ft 21 kts 355°
2026-04-26 13:36 0.04018 32.44008 3791 ft 20 kts 351°
2026-04-26 13:36 0.04199 32.43982 3793 ft 19 kts 353°
2026-04-26 13:36 0.04284 32.43970 3787 ft 19 kts 352°
2026-04-26 13:36 0.04489 32.43942 3791 ft 24 kts 352°
2026-04-26 13:37 0.04603 32.43927 3788 ft 28 kts 353°
2026-04-26 13:37 0.04796 32.43899 3790 ft 27 kts 351°
2026-04-26 13:37 0.04966 32.43876 3798 ft 22 kts 353°
2026-04-26 13:37 0.05050 32.43841 3791 ft 8 kts 292°
2026-04-26 13:38 0.05051 32.43785 3790 ft 8 kts 267°
2026-04-26 13:38 0.05041 32.43731 3789 ft 8 kts 245°
2026-04-26 13:38 0.05000 32.43704 3793 ft 7 kts 195°
2026-04-26 13:38 0.04923 32.43708 3790 ft 20 kts 173°
2026-04-26 13:39 0.04520 32.43765 3794 ft 102 kts 172°
2026-04-26 13:39 0.03545 32.43898 3794 ft 176 kts 171°
2026-04-26 13:39 0.02271 32.44102 4446 ft 189 kts 171°
2026-04-26 13:39 0.00992 32.44312 5568 ft 181 kts 172°
2026-04-26 13:40 -0.00275 32.44503 6422 ft 186 kts 172°
2026-04-26 13:40 -0.01580 32.44692 7084 ft 200 kts 172°
2026-04-26 13:40 -0.03074 32.44896 7247 ft 231 kts 172°
2026-04-26 13:40 -0.04758 32.45115 7339 ft 257 kts 172°
2026-04-26 13:41 -0.06615 32.45358 7645 ft 276 kts 172°
2026-04-26 13:41 -0.08533 32.45615 8494 ft 280 kts 171°
2026-04-26 13:41 -0.10431 32.46088 9329 ft 283 kts 157°
2026-04-26 13:41 -0.12090 32.47153 10139 ft 289 kts 136°
2026-04-26 13:42 -0.13252 32.48861 10305 ft 319 kts 111°
2026-04-26 13:42 -0.13829 32.51096 10418 ft 347 kts 100°
2026-04-26 13:42 -0.14179 32.53585 10908 ft 362 kts 97°
2026-04-26 13:42 -0.14477 32.56092 11774 ft 365 kts 97°
2026-04-26 13:43 -0.14790 32.58626 12636 ft 369 kts 97°
2026-04-26 13:43 -0.15124 32.61145 13493 ft 373 kts 97°
2026-04-26 13:43 -0.15490 32.63756 14246 ft 377 kts 98°
2026-04-26 13:43 -0.15864 32.66330 14947 ft 382 kts 98°
2026-04-26 13:44 -0.16256 32.68973 15660 ft 387 kts 98°
2026-04-26 13:44 -0.16656 32.71640 16357 ft 391 kts 98°
2026-04-26 13:44 -0.17049 32.74349 17024 ft 396 kts 98°
2026-04-26 13:44 -0.17422 32.77090 17722 ft 401 kts 97°
2026-04-26 13:45 -0.17789 32.79866 18392 ft 405 kts 97°
2026-04-26 13:45 -0.18157 32.82672 18975 ft 409 kts 97°
2026-04-26 13:45 -0.18527 32.85504 19545 ft 413 kts 97°
2026-04-26 13:45 -0.18903 32.88364 20132 ft 417 kts 97°
2026-04-26 13:46 -0.19282 32.91246 20723 ft 421 kts 97°
2026-04-26 13:46 -0.19665 32.94157 21301 ft 424 kts 97°
2026-04-26 13:46 -0.20052 32.97091 21863 ft 428 kts 97°
2026-04-26 13:46 -0.20442 33.00055 22441 ft 432 kts 97°
2026-04-26 13:47 -0.20837 33.03046 23006 ft 436 kts 97°
2026-04-26 13:47 -0.21235 33.06063 23554 ft 440 kts 97°
2026-04-26 13:47 -0.21636 33.09106 24025 ft 443 kts 97°
2026-04-26 13:47 -0.22014 33.11952 26159 ft 376 kts 96°
2026-04-26 13:48 -0.22340 33.14390 28368 ft 347 kts 96°
2026-04-26 13:48 -0.22658 33.16788 29068 ft 349 kts 96°
2026-04-26 13:48 -0.22974 33.19204 29598 ft 352 kts 96°
2026-04-26 13:48 -0.23294 33.21641 30112 ft 356 kts 96°
2026-04-26 13:49 -0.23616 33.24099 30565 ft 358 kts 96°
2026-04-26 13:49 -0.23941 33.26571 31022 ft 360 kts 96°
2026-04-26 13:49 -0.24269 33.29057 31474 ft 362 kts 96°
2026-04-26 13:49 -0.24598 33.31557 31911 ft 364 kts 96°
2026-04-26 13:50 -0.24925 33.34037 32325 ft 366 kts 96°
2026-04-26 13:50 -0.25258 33.36563 32754 ft 368 kts 96°
2026-04-26 13:50 -0.25593 33.39102 33164 ft 370 kts 96°
2026-04-26 13:50 -0.25934 33.41691 33568 ft 372 kts 96°
2026-04-26 13:51 -0.26271 33.44226 33947 ft 374 kts 97°
2026-04-26 13:51 -0.26805 33.46778 34279 ft 377 kts 103°
2026-04-26 13:51 -0.27550 33.49292 34607 ft 378 kts 105°
2026-04-26 13:51 -0.28380 33.51800 34856 ft 383 kts 106°
2026-04-26 13:52 -0.29245 33.54348 34920 ft 392 kts 107°
2026-04-26 13:52 -0.31035 33.59643 34944 ft 413 kts 106°
2026-04-26 13:53 -0.32893 33.65213 34948 ft 433 kts 106°
2026-04-26 13:53 -0.34827 33.71045 34945 ft 451 kts 107°
2026-04-26 13:54 -0.36832 33.77100 34940 ft 467 kts 107°
2026-04-26 13:54 -0.38904 33.83356 34940 ft 478 kts 107°
2026-04-26 13:55 -0.41673 33.91712 34938 ft 475 kts 107°
2026-04-26 13:56 -0.44894 34.02244 34940 ft 476 kts 104°
2026-04-26 13:56 -0.46622 34.08628 34938 ft 476 kts 103°
2026-04-26 13:57 -0.48349 34.15005 34937 ft 476 kts 104°
2026-04-26 13:57 -0.50091 34.21376 34935 ft 476 kts 104°
2026-04-26 13:58 -0.51825 34.27700 34937 ft 474 kts 104°
2026-04-26 13:58 -0.53568 34.34050 34938 ft 474 kts 104°
2026-04-26 13:59 -0.55308 34.40397 34939 ft 474 kts 104°
2026-04-26 13:59 -0.57050 34.46749 34938 ft 474 kts 104°
2026-04-26 14:00 -0.60542 34.59411 34949 ft 472 kts 104°
2026-04-26 14:01 -0.62387 34.65705 34962 ft 472 kts 105°
2026-04-26 14:01 -0.64260 34.71999 34974 ft 474 kts 105°
2026-04-26 14:02 -0.66136 34.78316 34988 ft 474 kts 105°
2026-04-26 14:02 -0.68005 34.84630 35000 ft 474 kts 105°
2026-04-26 14:03 -0.69873 34.90942 35001 ft 474 kts 105°
2026-04-26 14:03 -0.71742 34.97259 35014 ft 474 kts 105°
2026-04-26 14:04 -0.73614 35.03588 35015 ft 477 kts 105°
2026-04-26 14:04 -0.75484 35.09912 35029 ft 478 kts 105°
2026-04-26 14:05 -0.77370 35.16284 35039 ft 478 kts 105°
2026-04-26 14:05 -0.79256 35.22659 35040 ft 478 kts 105°
2026-04-26 14:06 -0.81140 35.29030 35052 ft 479 kts 105°
2026-04-26 14:06 -0.83257 35.35344 35065 ft 480 kts 110°
2026-04-26 14:07 -0.85898 35.41482 35063 ft 481 kts 112°
2026-04-26 14:07 -0.88626 35.47582 35075 ft 481 kts 112°
2026-04-26 14:08 -0.91319 35.53692 35073 ft 479 kts 112°
2026-04-26 14:08 -0.92655 35.56750 34805 ft 481 kts 112°
2026-04-26 14:08 -0.94003 35.59842 34396 ft 477 kts 111°
2026-04-26 14:08 -0.95302 35.62827 33913 ft 476 kts 111°
2026-04-26 14:09 -0.96641 35.65903 33347 ft 476 kts 112°
2026-04-26 14:09 -0.97945 35.68901 32821 ft 478 kts 112°
2026-04-26 14:09 -0.99273 35.71952 32293 ft 480 kts 112°
2026-04-26 14:09 -1.00607 35.75018 31773 ft 483 kts 112°
2026-04-26 14:10 -1.01951 35.78103 31285 ft 485 kts 112°
2026-04-26 14:10 -1.03300 35.81201 30754 ft 487 kts 112°
2026-04-26 14:10 -1.04652 35.84306 30239 ft 488 kts 112°
2026-04-26 14:10 -1.06010 35.87423 29565 ft 490 kts 112°
2026-04-26 14:11 -1.08739 35.93687 28297 ft 493 kts 112°
2026-04-26 14:11 -1.10107 35.96831 27683 ft 493 kts 111°
2026-04-26 14:11 -1.11477 35.99980 27064 ft 495 kts 112°
2026-04-26 14:12 -1.12851 36.03136 26448 ft 494 kts 112°
2026-04-26 14:12 -1.14216 36.06270 25844 ft 490 kts 112°
2026-04-26 14:12 -1.15572 36.09380 25239 ft 485 kts 112°
2026-04-26 14:12 -1.16911 36.12455 24648 ft 481 kts 112°
2026-04-26 14:13 -1.19554 36.18527 23424 ft 472 kts 112°
2026-04-26 14:13 -1.20857 36.21520 22776 ft 467 kts 112°
2026-04-26 14:13 -1.22147 36.24484 22180 ft 463 kts 112°
2026-04-26 14:14 -1.23426 36.27422 21572 ft 459 kts 112°
2026-04-26 14:14 -1.24691 36.30329 21005 ft 454 kts 112°
2026-04-26 14:14 -1.25945 36.33210 20442 ft 450 kts 112°
2026-04-26 14:14 -1.27186 36.36061 19905 ft 446 kts 112°
2026-04-26 14:15 -1.28417 36.38890 19353 ft 442 kts 112°
2026-04-26 14:15 -1.29636 36.41691 18770 ft 438 kts 112°
2026-04-26 14:15 -1.30844 36.44468 18148 ft 433 kts 112°
2026-04-26 14:15 -1.32038 36.47212 17482 ft 429 kts 112°
2026-04-26 14:16 -1.33207 36.49899 16636 ft 424 kts 112°
2026-04-26 14:16 -1.34387 36.52609 15665 ft 411 kts 112°
2026-04-26 14:16 -1.35476 36.55110 14702 ft 386 kts 113°
2026-04-26 14:16 -1.36514 36.57494 13754 ft 364 kts 113°
2026-04-26 14:17 -1.37498 36.59757 12703 ft 347 kts 113°
2026-04-26 14:17 -1.38437 36.61914 11739 ft 332 kts 113°
2026-04-26 14:17 -1.39337 36.63984 10842 ft 317 kts 113°
2026-04-26 14:17 -1.40205 36.65980 10087 ft 303 kts 113°
2026-04-26 14:18 -1.41020 36.67853 9273 ft 293 kts 113°
2026-04-26 14:18 -1.41804 36.69656 8890 ft 273 kts 113°
2026-04-26 14:18 -1.42538 36.71341 8528 ft 261 kts 114°
2026-04-26 14:18 -1.43253 36.72984 8185 ft 251 kts 114°
2026-04-26 14:19 -1.43927 36.74533 8007 ft 240 kts 114°
2026-04-26 14:19 -1.44513 36.76106 7999 ft 243 kts 99°
2026-04-26 14:19 -1.44318 36.77743 7992 ft 233 kts 65°
2026-04-26 14:19 -1.43372 36.78945 7998 ft 212 kts 45°
2026-04-26 14:20 -1.42316 36.79946 7997 ft 207 kts 45°
2026-04-26 14:20 -1.41277 36.80944 7954 ft 208 kts 46°
2026-04-26 14:20 -1.40245 36.81936 7708 ft 202 kts 46°
2026-04-26 14:20 -1.39260 36.82929 7451 ft 200 kts 50°
2026-04-26 14:21 -1.38338 36.83957 7221 ft 198 kts 51°
2026-04-26 14:21 -1.37504 36.85050 6976 ft 198 kts 57°
2026-04-26 14:21 -1.36724 36.86150 6731 ft 184 kts 58°
2026-04-26 14:21 -1.36000 36.87155 6475 ft 176 kts 56°
2026-04-26 14:22 -1.35295 36.88127 6213 ft 171 kts 56°
2026-04-26 14:22 -1.34594 36.89093 5986 ft 172 kts 56°
2026-04-26 14:22 -1.33914 36.90040 5727 ft 166 kts 57°
2026-04-26 14:22 -1.33185 36.91038 5556 ft 174 kts 57°
2026-04-26 14:23 -1.32489 36.91999 5352 ft 176 kts 57°
2026-04-26 14:23 -1.31860 36.92868 5313 ft 129 kts 54°
2026-04-26 14:23 -1.31507 36.93346 5307 ft 62 kts 52°
2026-04-26 14:23 -1.31279 36.93662 5306 ft 48 kts 54°
2026-04-26 14:24 -1.31178 36.93806 5304 ft 8 kts 69°
2026-04-26 14:24 -1.31182 36.93826 5306 ft 5 kts 111°
2026-04-26 14:24 -1.31218 36.93860 5309 ft 8 kts 142°
2026-04-26 14:24 -1.31288 36.93912 5304 ft 17 kts 143°
2026-04-26 14:25 -1.31375 36.93975 5305 ft 13 kts 148°
2026-04-26 14:25 -1.31423 36.93987 5307 ft 9 kts 188°
2026-04-26 14:25 -1.31464 36.93961 5308 ft 7 kts 225°
2026-04-26 14:25 -1.31509 36.93901 5308 ft 14 kts 233°
2026-04-26 14:26 -1.31571 36.93817 5312 ft 17 kts 233°
2026-04-26 14:26 -1.31647 36.93716 5309 ft 19 kts 233°
2026-04-26 14:26 -1.31722 36.93613 5312 ft 18 kts 234°
2026-04-26 14:26 -1.31795 36.93513 5309 ft 18 kts 234°
2026-04-26 14:27 -1.31870 36.93410 5311 ft 18 kts 233°
2026-04-26 14:27 -1.31942 36.93312 5316 ft 17 kts 233°
2026-04-26 14:27 -1.32009 36.93221 5314 ft 16 kts 234°
2026-04-26 14:27 -1.32079 36.93124 5319 ft 18 kts 234°
2026-04-26 14:28 -1.32152 36.93022 5319 ft 18 kts 234°
2026-04-26 14:28 -1.32225 36.92924 5335 ft 18 kts 233°
2026-04-26 14:28 -1.32299 36.92822 5335 ft 18 kts 234°
2026-04-26 14:28 -1.32373 36.92721 5337 ft 18 kts 234°
2026-04-26 14:29 -1.32449 36.92617 5336 ft 19 kts 234°
2026-04-26 14:29 -1.32531 36.92506 5334 ft 20 kts 233°
2026-04-26 14:29 -1.32613 36.92395 5337 ft 19 kts 233°
2026-04-26 14:29 -1.32683 36.92300 5338 ft 16 kts 233°
2026-04-26 14:30 -1.32739 36.92222 5336 ft 12 kts 234°
2026-04-26 14:30 -1.32789 36.92153 5339 ft 13 kts 234°
2026-04-26 14:30 -1.32841 36.92078 5339 ft 14 kts 236°
2026-04-26 14:30 -1.32904 36.91997 5341 ft 18 kts 233°
2026-04-26 14:31 -1.32977 36.91896 5343 ft 16 kts 233°
2026-04-26 14:31 -1.33036 36.91816 5341 ft 13 kts 234°
2026-04-26 14:31 -1.33098 36.91732 5336 ft 17 kts 233°
2026-04-26 14:31 -1.33165 36.91656 5338 ft 10 kts 220°
2026-04-26 14:32 -1.33194 36.91651 5336 ft 3 kts 167°
2026-04-26 14:32 -1.33224 36.91669 5338 ft 4 kts 146°
2026-04-26 14:32 -1.33240 36.91680 5336 ft 6 kts 145°
2026-04-26 14:32 -1.33262 36.91696 5336 ft 2 kts 144°
2026-04-26 14:33 -1.33267 36.91700 5336 ft 1 kts 143°
2026-04-26 14:33 -1.33272 36.91703 5335 ft 1 kts 143°
2026-04-26 14:33 -1.33276 36.91706 5334 ft 0 kts 143°